Content
SEND FEEDBACK

Daily
Averages
Monthly
Summary
United States of America

SKYLINE, KENTUCKY


Home > North America > United States > Kentucky
Elevation: 120 feet     Latitude: 37 04N     Longitude: 082 58W

WEATHER
 
SELECT A DAY
Number of Records: 454,256;   Date Range: 1/1/95 - 9/29/14
 
SHARE

PRINT THIS DATA

[ ← Previous Day ]
WEATHER ALMANAC - JANUARY 31, 2013
[ Next Day → ]
[ °C ]   °F
Weather ElementAverageHighLow
Temperature30.6 °F35.6 °F (12:35 am)28.4 °F (4:55 am)
Dewpoint24 °F35.6 °F (12:35 am)19.4 °F (6:55 am)
Humidity76.6 %100 % (12:35 am)64 % (3:55 pm)
Barometer29.82 in29.91 in (3:15 pm)29.55 in (12:35 am)
Wind Speed15.2 mph26.5 mph (3:35 am)
Wind Gust38 mph (4:35 am)
Weather ElementAverage
Visibility8.3 mi
Wind DirectionWSW (252.3 °)

Weather ElementTotal
Precipitation---
Heating Degree Days33 (Base 65)
Averaged from 70 records on January 31, 2013
WEATHER CONDITIONS BREAKOUT
WIND DIRECTION BREAKOUT
WEATHER BY HOUR - JANUARY 31, 2013
[ °C ]   °F
Local TimeTemperatureDewpointHumidityBarometerVisibilityWind DirectionWind SpeedGust SpeedPrecipitationEventsConditions
12:35 AM35.6 °F35.6 °F100 %29.55 in7.0 miWest (280°)19.6 mph29.9 mphRainLight Rain
12:55 AM35.6 °F33.8 °F93 %29.56 in10.0 miWest (280°)19.6 mph27.6 mphOvercast
1:15 AM33.8 °F33.8 °F100 %29.58 in10.0 miWNW (290°)18.4 mph27.6 mphOvercast
1:35 AM33.8 °F32.0 °F93 %29.59 in10.0 miWest (260°)19.6 mph31.1 mphOvercast
1:55 AM33.8 °F32.0 °F93 %29.61 in7.0 miWest (270°)10.4 mph26.5 mphOvercast
2:15 AM32.0 °F32.0 °F100 %29.63 in2.0 miWNW (290°)16.1 mph24.2 mphSnowLight Snow
2:35 AM32.0 °F32.0 °F100 %29.64 in1.0 miWest (280°)12.7 mph20.7 mphSnowLight Snow
2:55 AM32.0 °F32.0 °F100 %29.65 in2.0 miWest (280°)17.3 mph32.2 mphSnowLight Snow
3:15 AM30.2 °F30.2 °F100 %29.67 in2.5 miWest (280°)18.4 mph32.2 mphSnowLight Snow
3:35 AM30.2 °F26.6 °F86 %29.69 in10.0 miWest (270°)26.5 mph34.5 mphOvercast
3:55 AM30.2 °F26.6 °F86 %29.70 in7.0 miWest (260°)18.4 mph29.9 mphSnowLight Snow
4:15 AM30.2 °F26.6 °F86 %29.70 in10.0 miWest (260°)18.4 mph29.9 mphOvercast
4:35 AM30.2 °F23.0 °F75 %29.72 in10.0 miWest (260°)16.1 mph38.0 mphOvercast
4:55 AM28.4 °F23.0 °F80 %29.72 in10.0 miWSW (250°)16.1 mph20.7 mphSnowLight Snow
5:15 AM28.4 °F23.0 °F80 %29.73 in10.0 miWest (260°)13.8 mph24.2 mphSnowLight Snow
5:35 AM28.4 °F23.0 °F80 %29.74 in10.0 miWest (260°)19.6 mph25.3 mphSnowLight Snow
5:55 AM28.4 °F23.0 °F80 %29.74 in7.0 miWest (270°)18.4 mph31.1 mphSnowLight Snow
6:15 AM28.4 °F23.0 °F80 %29.75 in10.0 miWest (260°)17.3 mph25.3 mphSnowLight Snow
6:35 AM28.4 °F21.2 °F74 %29.76 in10.0 miWest (260°)19.6 mph28.8 mphOvercast
6:55 AM28.4 °F19.4 °F69 %29.76 in10.0 miWest (270°)19.6 mph32.2 mphOvercast
7:15 AM28.4 °F21.2 °F74 %29.77 in10.0 miWest (260°)17.3 mph24.2 mphSnowLight Snow
7:35 AM28.4 °F21.2 °F74 %29.79 in10.0 miWest (270°)15.0 mphSnowLight Snow
7:55 AM28.4 °F21.2 °F74 %29.79 in7.0 miWest (270°)12.7 mph26.5 mphSnowLight Snow
8:15 AM28.4 °F21.2 °F74 %29.81 in7.0 miWest (260°)11.5 mph20.7 mphSnowLight Snow
8:35 AM28.4 °F21.2 °F74 %29.81 in10.0 miWest (260°)10.4 mphSnowLight Snow
8:55 AM28.4 °F23.0 °F80 %29.83 in5.0 miWest (270°)12.7 mph17.3 mphSnowLight Snow
9:15 AM28.4 °F23.0 °F80 %29.84 in4.0 miWest (260°)11.5 mph16.1 mphSnowLight Snow
9:35 AM28.4 °F23.0 °F80 %29.85 in1.8 miWest (260°)9.2 mphSnowLight Snow
9:55 AM28.4 °F24.8 °F86 %29.86 in2.0 miWSW (250°)10.4 mphSnowLight Snow
10:15 AM28.4 °F24.8 °F86 %29.87 in2.0 miWSW (250°)9.2 mph17.3 mphSnowLight Snow
10:35 AM28.4 °F23.0 °F80 %29.88 in7.0 miWSW (250°)15.0 mph18.4 mphSnowLight Snow
10:55 AM30.2 °F21.2 °F69 %29.87 in10.0 miWSW (250°)16.1 mph23.0 mphOvercast
11:15 AM28.4 °F21.2 °F74 %29.88 in10.0 miWest (260°)15.0 mph25.3 mphOvercast
11:35 AM28.4 °F21.2 °F74 %29.88 in10.0 miWest (260°)9.2 mphSnowLight Snow
11:55 AM28.4 °F21.2 °F74 %29.89 in7.0 miWest (260°)13.8 mph25.3 mphSnowLight Snow
12:15 PM28.4 °F21.2 °F74 %29.89 in5.0 miWSW (250°)13.8 mph21.9 mphSnowLight Snow
12:35 PM30.2 °F21.2 °F69 %29.87 in10.0 miSW (230°)12.7 mph18.4 mphOvercast
12:55 PM30.2 °F21.2 °F69 %29.88 in10.0 miWSW (240°)16.1 mph29.9 mphSnowLight Snow
1:15 PM30.2 °F21.2 °F69 %29.88 in10.0 miWSW (250°)16.1 mph31.1 mphOvercast
1:35 PM30.2 °F21.2 °F69 %29.88 in10.0 miWSW (250°)16.1 mph25.3 mphSnowLight Snow
1:55 PM30.2 °F21.2 °F69 %29.89 in7.0 miWest (260°)13.8 mph23.0 mphSnowLight Snow
2:15 PM30.2 °F23.0 °F75 %29.90 in3.0 miWest (260°)12.7 mph18.4 mphSnowLight Snow
2:35 PM30.2 °F21.2 °F69 %29.90 in10.0 miWest (260°)17.3 mph27.6 mphOvercast
2:55 PM30.2 °F23.0 °F75 %29.90 in0.8 miWSW (250°)17.3 mph25.3 mphSnowLight Snow
3:15 PM30.2 °F23.0 °F75 %29.91 in10.0 miWSW (250°)15.0 mphMostly Cloudy
3:35 PM30.2 °F23.0 °F75 %29.90 in10.0 miWSW (250°)16.1 mph25.3 mphOvercast
3:55 PM32.0 °F21.2 °F64 %29.89 in10.0 miWest (260°)12.7 mph19.6 mphMostly Cloudy
4:15 PM32.0 °F21.2 °F64 %29.90 in10.0 miWSW (250°)11.5 mph23.0 mphMostly Cloudy
4:35 PM32.0 °F21.2 °F64 %29.90 in10.0 miWSW (250°)11.5 mphOvercast
4:55 PM32.0 °F21.2 °F64 %29.90 in10.0 miWSW (250°)13.8 mph17.3 mphOvercast
5:15 PM32.0 °F21.2 °F64 %29.90 in10.0 miSW (230°)12.7 mphOvercast
5:35 PM32.0 °F21.2 °F64 %29.90 in10.0 miSW (230°)10.4 mphOvercast
5:55 PM32.0 °F21.2 °F64 %29.90 in10.0 miWSW (240°)15.0 mph24.2 mphOvercast
6:15 PM32.0 °F21.2 °F64 %29.90 in10.0 miWSW (250°)13.8 mphOvercast
6:35 PM32.0 °F21.2 °F64 %29.91 in10.0 miWSW (240°)16.1 mphOvercast
6:55 PM32.0 °F23.0 °F69 %29.90 in10.0 miWSW (240°)12.7 mph18.4 mphOvercast
7:15 PM32.0 °F23.0 °F69 %29.90 in10.0 miSW (230°)12.7 mph18.4 mphOvercast
7:35 PM32.0 °F23.0 °F69 %29.90 in10.0 miSW (230°)11.5 mph17.3 mphOvercast
7:55 PM32.0 °F23.0 °F69 %29.91 in10.0 miSW (230°)15.0 mphOvercast
8:15 PM32.0 °F23.0 °F69 %29.91 in10.0 miSW (230°)15.0 mph20.7 mphOvercast
8:35 PM32.0 °F23.0 °F69 %29.90 in10.0 miWSW (240°)16.1 mph21.9 mphOvercast
9:15 PM32.0 °F23.0 °F69 %29.89 in10.0 miSW (220°)12.7 mphOvercast
9:35 PM32.0 °F23.0 °F69 %29.89 in10.0 miSW (220°)10.4 mph13.8 mphOvercast
9:55 PM32.0 °F23.0 °F69 %29.87 in10.0 miSW (220°)17.3 mph26.5 mphOvercast
10:15 PM32.0 °F24.8 °F75 %29.87 in10.0 miSW (230°)20.7 mph25.3 mphOvercast
10:35 PM32.0 °F24.8 °F75 %29.86 in10.0 miSW (230°)20.7 mph28.8 mphOvercast
10:55 PM32.0 °F26.6 °F80 %29.86 in10.0 miSW (230°)18.4 mph28.8 mphOvercast
11:15 PM32.0 °F26.6 °F80 %29.86 in10.0 miSW (220°)19.6 mph33.4 mphSnowLight Snow
11:35 PM32.0 °F26.6 °F80 %29.85 in10.0 miSW (230°)17.3 mph23.0 mphOvercast
11:55 PM32.0 °F26.6 °F80 %29.84 in10.0 miSW (230°)15.0 mph25.3 mphSnowLight Snow
Hourly data recorded from KLNP, located miles away from Skyline, Kentucky







STORIES FROM OUR PARTNERS